"Pseudo-MPEC" for N00fc1r

Created 2019 Aug 19 10:07:03 UT using Find_Orb

Click here for an explanation of pseudo-MPECs

 
 Astrometry: 
     N00fc1r  S2019 08 07sp[LT(tdHV?Dfe*CN%E/'@XAstrometryyE+?O,lEATIlqLs(k=HC51
     N00fc1r  s2019 08 070!k_'6HbWZbVe[+KM+mE_p7#BvJ/nrtocYPS[m0oUg5jL`qW-p$-C51
     N00fc1r  S2019 08 07tKJJ5v/h9BrlW?WLtxaJi\c_xAGLALwEaoAJ7ZFdM#)**X(EP,!@C51
     N00fc1r  s2019 08 07he%A,m(SjMn:Is+]?odCyn'1PLa7N'%maFSgn[t8ciRfb^I'-4$,C51
     N00fc1r  S2019 08 08\_=g2Y$:`]-!^`iRvcj_,w%n[NPB.OSHF@ZYxt@[[A?AdK=(V4m[C51
     N00fc1r  s2019 08 08]NdgJZOy3w-WY++SAfO:b9fYA\6VOKmW5Z'J/[]a5kHP$KDQf,D,C51
     N00fc1r  S2019 08 08ffBVvq'C(q#/AfDX'Y#(T$^%5Ec3QOSM_)D@Lk)62J4EQnHQP/4\C51
     N00fc1r  s2019 08 082#'u63$j:cs_]eO)U;-D`_8/jBeVG23)-Ip1m0NAI1Ai`$xfBbK4C51
     N00fc1r  S2019 08 08KoV7of8'yAh#kypV'k%9fHyEGU1ir6$C+44!!M\TnKW:J(pRMOE:C51
     N00fc1r  s2019 08 08xx9ETJ4:lIE[^6e]jY.M2^Ces=%qrpJB^P6+S\fk6VsFj[=H:;@hC51
     N00fc1r  S2019 08 08^_92/JTmTkx-'yq@UEAyw=(lXIL-e9-wH1,;ewnrX2KO-[t(ZU%wC51
     N00fc1r  s2019 08 08]K/,w/mcH:JeF@Pw4#U(_-c3ixhIOt_fLHredacted;ZiK4)OPo*C51
     N00fc1r  S2019 08 08M]-]^6BESUiQx8'$2@j^B$Mm91Cmalw4P_KhOmg(#V4!n;Y[5I?WC51
     N00fc1r  s2019 08 08(G%u2Hhsn?aDX3f-ZTj]0X^%Mq`bAY?#ZDxlF@?o9'9rnYN4#2D[C51
     N00fc1r  S2019 08 08JI.Bcp=wjtWhr$5lC*click+JwWW7Gk:36P79^3WUPTE$13PiB3`C51
     N00fc1r  s2019 08 08(7890o*W;yj+O[D3o!hy/g$uUTdWwwrYi0ryY#0tVT%+5$*Ya*iNC51
     N00fc1r  S2019 08 08bd)(;mZ3LIwyVV2Q2@VqU45:nvx]%`!b)WJcjP2g)4D_OK@_BPt2C51
     N00fc1r  s2019 08 08jhbBKg(*^/a.s,9_MBNK((-I`*y4C$e'FG-*+kniQ-)%)WPe_+sbC51
     N00fc1r  S2019 08 08E#;Ys8[wWbw$I'd?MX/$?l]HI44bsa%@w732hjNfowmYtk%y0q62C51
     N00fc1r  s2019 08 08tJ7wa;%6lpI$_:,Kc)rBmg%FQQ\cKab8%XT_oUrYnfe?OolKI98NC51
     N00fc1r  S2019 08 099i%u-+6KGO*]Cu]SGpG4\Ac+35T'(?Kb:XG+]nZAtqeITrqK?_a:C51
     N00fc1r  s2019 08 09Hl'7-s\LDDAVELm:`4hWS8eKcjEQ_JwgwtiZ!gXBC$Hj.X,?2x*7C51
     N00fc1r  S2019 08 09;u\=vB$=8!7'[lnn4kr6[6x9v=%u=jQS.WO*5lBk^I*=tsbl/C(.C51
     N00fc1r  s2019 08 09\Y%b.[Yx22`DjYb2JF5QQRKJn37uNY!jA\I@I5mQK:]Q:s\E%-ItC51
     N00fc1r  S2019 08 09%]eZX9m3)5J,/sB5@M`FgxQ(q3'PuQ$4j4F)(Zg=^ML1I;+wVQd.C51
     N00fc1r  s2019 08 09]FYpN/kY4Fm$Zma'(Ye0_PYU[VeguMJu,t#of\)f)aw#=$_PDojtC51
     N00fc1r  S2019 08 09OyV_dw47G0wA3lapPMyk(vHEU.uyWeM`d]F(ZZs'DpIX=d(ml[8tC51
     N00fc1r  s2019 08 092a?gon@LhereZm3xQ3[1GTml%p$BZ,iLg'Fyh?f74`HTQF_[Je6=C51
     N00fc1r  S2019 08 091o35knAZtc;ub^:)uNi9PwDw\b2-($9q8)b`JvZ3l/PPJ3KR?)TcC51
     N00fc1r  s2019 08 09ZjlQboV!@H^)./YBv%RUV9[.p7J=K:Cl+ga-JEj2.$T_)`?_Y@KOC51
     N00fc1r  S2019 08 09tS7hG5`mt'o[4s[%+C]`\fF%c5yhs^qer@ftG[0\/k;:hxTK!MDCC51
     N00fc1r  s2019 08 09`Z=DQ\%I\EiVm%fO41DNv]%:^,8VH\p(Sn35s6q?'2_H;s39!g5^C51
     N00fc1r  S2019 08 09l)vxB,$(1KoFD`qcfRO%TDxh]SUr8VhTxuUVQ7g-gGm8d3Dn8y8jC51
     N00fc1r  s2019 08 09gvCvH5x$$SS.X*Ey-,@.y2LfW@$VYHwUls#[L(_%^8gqwfJ^sklLC51
     N00fc1r  S2019 08 09W949=DrfA'2o*mAf-%yAvv-FZkSIyF78c\0)W7ou=!J!AIB=*=ZdC51
     N00fc1r  s2019 08 09c;=f:=WR'mbdKS4+NQ-j!.1$+($i9S=Tq)n4`FoTb4Y;dCSK4.4yC51
     N00fc1r  S2019 08 092?\k.\*aS^2\,!vRJ*n8=c:\,G-tUAtB:03lqyU*[;_1mdp;V3$qC51
     N00fc1r  s2019 08 09I0rW+(RYJGi7#5.A4=IXeZK)P@`D1g.)x91+r5R;L/PZQdw13/PHC51
     N00fc1r  S2019 08 09ZZRTtpx+8-hjTuMi'hp7s*B]\SKk)M=%Z7P3vBteftsbGCj2ZcqVC51
     N00fc1r  s2019 08 09S/KDmR$d2_LR^FqJ@jfB-02forsDuj!uwd!v1-v?9R[e*s1xRFNSC51
     N00fc1r  S2019 08 09(`'M5K(dIleE$sETl_,N$6!6lSB9rpF0MMEy//HOGZF4n_tvd0RWC51
     N00fc1r  s2019 08 09+Bp#lXj+GCo0EK_l+;8sdxG:1lhR8^U*!g`Es-BBqgm1YRLK%6#LC51
     N00fc1r  S2019 08 10+?]w5LOM0_1eLqdyX,APsha,@g2EX5qcU/`j[jrE)]e//)cg6^qcC51
     N00fc1r  s2019 08 10MXJm\mXqAM[KbKw..ZMriV[1F?(0F;4n;pasAYnH-OMoUJWc**[NC51
     N00fc1r  S2019 08 10ap_-6gq6\+*w!EJw%y2HL[#v9@C.^rmlb5cyqI]I$)M!.FtnLUKHC51
     N00fc1r  s2019 08 10Hk)Fmk*@_v\N:[ycsHgPidvC^Dpmor`U.GFN,C047F3?\Auf0_b.C51
     N00fc1r KC2019 08 11C`$jUP,o,#SI+9FpM]p`7ivXdbCI$QFU6M_wCkyDH`7H0d+%BoUUH21
     N00fc1r KC2019 08 113rx6vO\o^LBCI?5#@3%Z%NexplanationjiYpHV?$1Rv/hL8$APPH21
     N00fc1r KC2019 08 11s]bWWP\7U0'xjw!p%1Utj[2HWbyu5SXR0j(l'7#/5G`6GWoXY$R$H21
     N00fc1r KC2019 08 12.47747 03 36 25.87 -11 49 48.4    ~8CBq 20.0 RoNEOCP291
     N00fc1r KC2019 08 12.48046 03 36 26.26 -11 49 47.2    ~8CBq 19.9 RoNEOCP291
     N00fc1r KC2019 08 12.48345 03 36 26.65 -11 49 46.2    ~8CBq 20.0 RoNEOCP291

Station data:
(291) LPL/Spacewatch II  (N31.961669 W111.599905)  US/Arizona.  Observers J.
   V. Scotti, R. S. McMillan. 1.8-m f/2.7 reflector + CCD.
(C51) WISE. Measurers A. Mainzer, E. Wright, J. Bauer, T. Grav, J. Dailey, J.
   Masiero, R. Cutri, R. McMillan, R. Walker.
(H21) Astronomical Research Observatory, Westfield  (N39.483057 W87.968270)
   US/Illinois. 0.76-m f/3.0 astrograph + CCD.

Orbital elements:  N00fc1r
   Perihelion 2019 Aug 8.162347 TT =  3:53:46 (JD 2458703.662347)
Epoch 2019 Aug 12.0 TT = JDT 2458707.5   Earth MOID: 0.6539   AutoNEOCP
M   1.08365441                      (J2000 ecliptic)
n   0.28237423     Peri.  281.83313
a   2.30101439     Node    75.93849
e   0.3511738      Incl.   22.18555
P   3.49           H   17.8     G   0.15   q 1.49295819  Q 3.10907059
From 29 observations 2019 Aug. 7-12; mean residual 1".02
Residuals in arcseconds: 
190807 C51  .12+  .36-    190809 C51  .07+  .44+    190809 C51  2.7+  3.3+    
190807 C51  1.3-  .35-    190809 C51  .34-  .19+    190810 C51  .61+  .64-    
190808 C51  .05+  .13+    190809 C51  .29-  1.6-    190810 C51  .22-  .20+    
190808 C51  .37-  .22-    190809 C51  2.9-  1.4+    190811 H21  .04+  .16-    
190808 C51  .31+  .58-    190809 C51  .43+  .48-    190811 H21  .04-  .19+    
190808 C51  1.7-  1.8-    190809 C51  .29+  .16-    190811 H21  .10-  .16+    
190808 C51  .06+  .02+    190809 C51  .75+  .28-    190812 291  .22-  .26-    
190808 C51  1.1+  .14+    190809 C51  .24-  .15+    190812 291  .10-  .04-    
190808 C51  .04+  .16+    190809 C51  .92-  .54-    190812 291  .03+  .03-    
190808 C51  3.2+  .67+    190809 C51  1.5+  1.4+    

Ephemerides (geocentric):
Date (UTC) HH   RA              Dec         delta   r     elong  mag
---- -- -- --  -------------   -----------  ------ ------ -----  ---
2019 08 19 10  03 50 52.701   -11 12 14.19  1.0518 1.4959  92.9 20.5
2019 08 19 11  03 50 57.686   -11 12 01.12  1.0516 1.4959  92.9 20.5
2019 08 19 12  03 51 02.667   -11 11 48.04  1.0514 1.4959  92.9 20.5
2019 08 19 13  03 51 07.646   -11 11 34.97  1.0512 1.4960  92.9 20.5
2019 08 19 14  03 51 12.622   -11 11 21.91  1.0510 1.4960  92.9 20.5
2019 08 19 15  03 51 17.595   -11 11 08.85  1.0508 1.4960  93.0 20.5
2019 08 19 16  03 51 22.566   -11 10 55.80  1.0506 1.4960  93.0 20.5
2019 08 19 17  03 51 27.534   -11 10 42.75  1.0504 1.4961  93.0 20.5
2019 08 19 18  03 51 32.499   -11 10 29.70  1.0502 1.4961  93.0 20.5
2019 08 19 19  03 51 37.461   -11 10 16.66  1.0500 1.4961  93.0 20.5
2019 08 19 20  03 51 42.421   -11 10 03.63  1.0498 1.4961  93.0 20.5
2019 08 19 21  03 51 47.377   -11 09 50.60  1.0496 1.4961  93.0 20.5
2019 08 19 22  03 51 52.331   -11 09 37.57  1.0494 1.4962  93.0 20.5
2019 08 19 23  03 51 57.282   -11 09 24.55  1.0492 1.4962  93.1 20.5
2019 08 20 00  03 52 02.231   -11 09 11.53  1.0490 1.4962  93.1 20.5
2019 08 20 01  03 52 07.177   -11 08 58.52  1.0489 1.4962  93.1 20.5
2019 08 20 02  03 52 12.119   -11 08 45.51  1.0487 1.4963  93.1 20.5
2019 08 20 03  03 52 17.060   -11 08 32.51  1.0485 1.4963  93.1 20.5
2019 08 20 04  03 52 21.997   -11 08 19.51  1.0483 1.4963  93.1 20.5
2019 08 20 05  03 52 26.931   -11 08 06.52  1.0481 1.4963  93.1 20.5
2019 08 20 06  03 52 31.863   -11 07 53.53  1.0479 1.4964  93.2 20.5
2019 08 20 07  03 52 36.792   -11 07 40.55  1.0477 1.4964  93.2 20.5
2019 08 20 08  03 52 41.718   -11 07 27.57  1.0475 1.4964  93.2 20.5
2019 08 20 09  03 52 46.642   -11 07 14.59  1.0473 1.4964  93.2 20.5
2019 08 20 10  03 52 51.563   -11 07 01.62  1.0471 1.4964  93.2 20.5
2019 08 20 11  03 52 56.480   -11 06 48.66  1.0469 1.4965  93.2 20.5
2019 08 20 12  03 53 01.395   -11 06 35.70  1.0467 1.4965  93.2 20.5
2019 08 20 13  03 53 06.308   -11 06 22.74  1.0465 1.4965  93.3 20.5
2019 08 20 14  03 53 11.217   -11 06 09.79  1.0463 1.4965  93.3 20.5
2019 08 20 15  03 53 16.124   -11 05 56.85  1.0461 1.4966  93.3 20.5
2019 08 20 16  03 53 21.028   -11 05 43.90  1.0459 1.4966  93.3 20.5
2019 08 20 17  03 53 25.929   -11 05 30.97  1.0457 1.4966  93.3 20.5
2019 08 20 18  03 53 30.827   -11 05 18.03  1.0455 1.4966  93.3 20.5
2019 08 20 19  03 53 35.723   -11 05 05.11  1.0453 1.4967  93.3 20.5
2019 08 20 20  03 53 40.615   -11 04 52.18  1.0451 1.4967  93.4 20.5
2019 08 20 21  03 53 45.505   -11 04 39.26  1.0449 1.4967  93.4 20.5
2019 08 20 22  03 53 50.392   -11 04 26.35  1.0447 1.4967  93.4 20.5
2019 08 20 23  03 53 55.276   -11 04 13.44  1.0446 1.4968  93.4 20.5
2019 08 21 00  03 54 00.158   -11 04 00.53  1.0444 1.4968  93.4 20.5
2019 08 21 01  03 54 05.036   -11 03 47.63  1.0442 1.4968  93.4 20.4
2019 08 21 02  03 54 09.912   -11 03 34.74  1.0440 1.4968  93.4 20.4
2019 08 21 03  03 54 14.785   -11 03 21.85  1.0438 1.4969  93.5 20.4
2019 08 21 04  03 54 19.655   -11 03 08.96  1.0436 1.4969  93.5 20.4
2019 08 21 05  03 54 24.522   -11 02 56.08  1.0434 1.4969  93.5 20.4
2019 08 21 06  03 54 29.387   -11 02 43.20  1.0432 1.4969  93.5 20.4
2019 08 21 07  03 54 34.249   -11 02 30.33  1.0430 1.4970  93.5 20.4
2019 08 21 08  03 54 39.107   -11 02 17.46  1.0428 1.4970  93.5 20.4
2019 08 21 09  03 54 43.963   -11 02 04.59  1.0426 1.4970  93.5 20.4